Back to catalog

TIANXIANG 2

AliveScienceVLEO
NORAD 44316·PAYLOAD·🇨🇳 China
This satellite name has not been confirmed by official sources yet.

Launched Jun 5, 2019 from Yellow Sea Launch Area

Loading…

Next Passes (next 24 hours)

TLE

FreshSource: Space-Track

Epoch: Sep 14, 2026, 13:39 UTC

1 44316U 19032G   26257.56895334  .00008435  00000-0  30597-3 0  9995
2 44316  44.9708 292.4526 0009724  37.0146 323.1406 15.28763035400750

Track TIANXIANG 2 in real time with AllMySat

Download on the App Store